This is the latest recevied weather packets stored in our database for station/object AB4CZ-1. If no packets are shown the sender has not sent any weather packets the latest 10 day(s).
| Time | Temp. | Humidity | Pressure | Rain* | Wind** | Luminosity | Snow |
|---|---|---|---|---|---|---|---|
| 1778081193 | 22.22° C | 76% | 1016.7 hPa | 0 mm | - | - | - |
| 1778080894 | 22.22° C | 77% | 1016.7 hPa | 0 mm | - | - | - |
| 1778080597 | 22.22° C | 77% | 1016.8 hPa | 0 mm | - | - | - |
| 1778080293 | 22.22° C | 77% | 1016.7 hPa | 0 mm | - | - | - |
| 1778079993 | 22.22° C | 78% | 1016.8 hPa | 0 mm | - | - | - |
| 1778079093 | 22.22° C | 77% | 1016.7 hPa | 0 mm | - | - | - |
| 1778078793 | 22.22° C | 77% | 1016.6 hPa | 0 mm | - | - | - |
| 1778078269 | 22.22° C | 76% | 1016.7 hPa | 0 mm | - | - | - |
| 1778078193 | 22.22° C | 76% | 1016.7 hPa | 0 mm | - | - | - |
| 1778077893 | 22.22° C | 75% | 1016.7 hPa | 0 mm | - | - | - |
| 1778077593 | 22.22° C | 74% | 1016.7 hPa | 0 mm | - | - | - |
| 1778077293 | 22.78° C | 75% | 1016.7 hPa | 0 mm | - | - | - |
| 1778076993 | 22.78° C | 76% | 1016.5 hPa | 0 mm | - | - | - |
| 1778076693 | 22.22° C | 77% | 1016.4 hPa | 0 mm | - | - | - |
| 1778076393 | 22.22° C | 78% | 1016.2 hPa | 0 mm | - | - | - |
| 1778076154 | 22.22° C | 77% | 1016 hPa | 0 mm | - | - | - |
| 1778076093 | 22.22° C | 77% | 1016 hPa | 0 mm | - | - | - |
| 1778075793 | 22.22° C | 78% | 1015.9 hPa | 0 mm | - | - | - |
| 1778075493 | 22.22° C | 78% | 1015.8 hPa | 0 mm | - | - | - |
| 1778073093 | 21.11° C | 83% | 1015.7 hPa | 0 mm | - | - | - |
| 1778072012 | 20.56° C | 84% | 1015.6 hPa | 0 mm | - | - | - |
| 1778071893 | 20.56° C | 84% | 1015.6 hPa | 0 mm | - | - | - |
| 1778071293 | 20.56° C | 84% | 1015.7 hPa | 0 mm | - | - | - |
| 1778070693 | 20.56° C | 84% | 1015.8 hPa | 0 mm | - | - | - |
| 1778070093 | 20° C | 84% | 1015.6 hPa | 0 mm | - | - | - |
* Rain latest hour (hover to see other rain measurements)
** Current wind speed in m/s (hover to see current wind gust speed)